Home > Time Zones > World Clock > Weather > Italy > Rome > Past weeks

Flag Weather past 2 weeks in Rome, Italy

Now
55 °F

Passing clouds.


Feels Like: 55 °F
Forecast: 51 / 68 °F
Wind: No wind

Location: Rome / Ciampino

Current Time: Nov 26, 2014 at 3:56:08 AM

Latest Report: Nov 26, 2014 at 2:45 AM


Visibility: 4 mi

Pressure: 30.04 "Hg

Humidity: 94%

Dew point: 54 °F

Location of RomeLocation

Historic Weather in Rome — Graph

°F

Rome temperature yesterday

Maximum temperature yesterday: 64 °F (at 1:15 PM)
Minimum temperature yesterday: 50 °F (at 2:15 AM)
Average temperature yesterday: 56 °F

Past Weeks' High & Low Weather Summary

 TemperatureHumidityPressure
High68 °F (Nov 11, 1:45 PM)94% (Nov 11, 2:15 AM)30.30 "Hg (Nov 11, 2:15 AM)
Low41 °F (Nov 21, 7:15 AM)39% (Nov 21, 1:45 PM)29.62 "Hg (Nov 12, 6:15 AM)
Average56 °F81%29.97 "Hg
* Reported Nov 11 2:15 AM — Nov 26 2:45 AM, Rome, Weather by CustomWeather, © 2014

Note: Actual official high and low records may vary slightly from our data, if they occured in-between our weather recording intervals... More about our weather records

Advertising

Rome weather history for previous 24 hours

 ConditionsComfort  
Time TempWeatherWind HumidityBarometerVisibility
2:45 AM
Nov 26
55 °FPassing clouds.No wind94%30.04 "Hg4 mi
2:15 AM55 °FPassing clouds.No wind94%30.07 "Hg4 mi
1:45 AM55 °FPassing clouds.No wind94%30.07 "Hg4 mi
1:15 AM57 °FPassing clouds.No wind88%30.07 "Hg4 mi
12:15 AM57 °FPassing clouds.No wind94%30.09 "Hg4 mi
11:45 PM
Nov 25
57 °FPassing clouds.No wind88%30.09 "Hg4 mi
11:15 PM57 °FPassing clouds.No wind88%30.09 "Hg5 mi
10:45 PM57 °FPassing clouds.No wind88%30.09 "Hg5 mi
10:15 PM57 °FPassing clouds.No wind88%30.09 "Hg5 mi
9:45 PM59 °FPassing clouds.No wind88%30.09 "Hg5 mi
9:15 PM57 °FPassing clouds.No wind94%30.09 "Hg5 mi
8:45 PM57 °FPassing clouds.No wind94%30.09 "Hg5 mi
8:15 PM57 °FPassing clouds.3 mph88%30.09 "Hg5 mi
7:45 PM55 °FPassing clouds.No wind88%30.09 "Hg5 mi
7:15 PM55 °FPassing clouds.No wind94%30.09 "Hg5 mi
6:45 PM57 °FPassing clouds.No wind88%30.09 "Hg5 mi
6:15 PM57 °FClear.No wind88%30.09 "Hg6 mi
5:45 PM59 °FClear.No wind82%30.09 "Hg6 mi
5:15 PM61 °FClear.No wind77%30.09 "Hg6 mi
4:45 PM63 °FClear.3 mph77%30.09 "Hg6 mi
4:15 PM63 °FClear.No wind73%30.09 "Hg6 mi
3:45 PM64 °FClear.No wind68%30.09 "Hg6 mi
3:15 PM64 °FClear.No wind68%30.09 "Hg5 mi
2:45 PM64 °FClear.No wind68%30.09 "Hg5 mi
2:15 PM64 °FClear.No wind68%30.12 "Hg5 mi
1:45 PM64 °FClear.No wind68%30.12 "Hg5 mi
1:15 PM64 °FClear.No wind68%30.12 "Hg5 mi
12:45 PM63 °FPassing clouds.No wind73%30.12 "Hg5 mi
12:15 PM63 °FClear.No wind73%30.15 "Hg5 mi
11:45 AM61 °FClear.No wind77%30.15 "Hg5 mi
11:15 AM59 °FClear.No wind82%30.15 "Hg5 mi
10:45 AM57 °FPassing clouds.1 mph82%30.15 "Hg5 mi
10:15 AM55 °FPassing clouds.No wind88%30.15 "Hg6 mi
9:45 AM55 °FPassing clouds.3 mph88%30.15 "Hg6 mi
9:15 AM52 °FPassing clouds.No wind94%30.15 "Hg6 mi
8:45 AM52 °FPassing clouds.No wind94%30.15 "Hg6 mi
8:15 AM50 °FPassing clouds.1 mph94%30.15 "Hg6 mi
7:45 AM50 °FPassing clouds.1 mph94%30.15 "Hg6 mi
7:15 AM50 °FPassing clouds.No wind94%30.15 "Hg6 mi
6:45 AM50 °FClear.No wind94%30.12 "Hg6 mi
6:15 AM50 °FClear.No wind94%30.12 "Hg4 mi
5:45 AM50 °FClear.No wind94%30.12 "Hg4 mi
5:15 AM50 °FClear.No wind94%30.12 "Hg5 mi
4:45 AM50 °FClear.No wind94%30.12 "Hg5 mi
4:15 AM50 °FPassing clouds.No wind94%30.15 "Hg4 mi
3:45 AM50 °FPassing clouds.No wind94%30.15 "Hg4 mi
3:15 AM50 °FPassing clouds.No wind94%30.15 "Hg4 mi
Weather by CustomWeather, © 2014

See weather overviewHow to use our weather pages